Location: Shenandoah County Park
(38.9356°N, 78.4524°W)
Time: 10:27:22
(UTC-04:00)

First-Move - Visible Passes

Search period start: 21 March 2023 00:00
Search period end: 31 March 2023 00:00
Orbit: 564 x 644 km, 97.7° (Epoch: 20 March)

Date Brightness Start Highest point End Pass type
(mag) Time Alt. Az. Time Alt. Az. Time Alt. Az.
21 Mar ? 04:13:15 10° NE 04:15:04 20° NE 04:15:04 20° NE visible
21 Mar ? 05:49:19 10° NNW 05:51:55 21° NW 05:51:55 21° NW visible
22 Mar ? 04:25:26 10° NNE 04:27:46 27° NE 04:27:46 27° NE visible
22 Mar ? 06:02:16 10° NNW 06:04:36 16° WNW 06:04:36 16° WNW visible
23 Mar ? 04:37:41 10° NNE 04:40:26 37° NE 04:40:26 37° NE visible
23 Mar ? 06:15:37 10° NW 06:17:05 12° WNW 06:17:17 12° WNW visible
24 Mar ? 04:50:02 10° NNE 04:53:05 47° NNE 04:53:05 47° NNE visible
25 Mar ? 05:02:25 10° N 05:05:43 53° NNW 05:05:43 53° NNW visible
26 Mar ? 03:41:21 10° ENE 03:41:30 10° ENE 03:41:30 10° ENE visible
26 Mar ? 05:14:52 10° N 05:18:20 46° NW 05:18:20 46° NW visible
27 Mar ? 03:52:37 10° NE 03:54:05 15° ENE 03:54:05 15° ENE visible
27 Mar ? 05:27:22 10° N 05:30:56 35° WNW 05:30:56 35° WNW visible
28 Mar ? 04:04:23 10° NE 04:06:40 20° ENE 04:06:40 20° ENE visible
28 Mar ? 05:39:57 10° NNW 05:43:23 26° WNW 05:43:31 26° WNW visible
29 Mar ? 04:16:20 10° NE 04:19:13 28° ENE 04:19:13 28° ENE visible
29 Mar ? 05:52:38 10° NNW 05:55:34 19° WNW 05:56:04 19° WNW visible
30 Mar ? 04:28:23 10° NNE 04:31:46 40° ENE 04:31:46 40° ENE visible
30 Mar ? 06:05:31 10° NNW 06:07:43 14° WNW 06:08:37 13° W visible
